Wind_Speed
2 2 3 14 5 2 3 5 10 13 9 7 16 13 15 11 3 6 28 27 31 32 28 24 21 21 20 18 18 18 17 15 14 13 12 12 10 9 9 9 10 11 9 8 8 8 8 7 6
2 10 7 2 2 2 3 9 15 12 7 9 17 19 17 14 10 17 20 33 31 32 29 24 21 23 21 19 17 16 15 14 13 11 10 8 7 7 7 7 7 8 7 6 6 7 6 5 5
8 7 3 4 2 1 7 11 11 7 8 9 7 9 9 10 20 23 33 34 30 30 27 24 22 23 21 19 17 15 14 13 12 10 9 7 6 7 7 6 6 5 5 4 5 6 7 6 5
8 4 3 2 6 8 11 8 9 8 11 18 16 11 9 25 13 28 39 37 28 29 25 25 23 22 20 18 17 15 14 13 11 9 8 7 7 6 6 6 5 5 5 4 4 4 5 5 6
5 1 1 4 8 10 10 14 12 12 20 20 19 12 10 26 35 41 41 35 34 30 25 24 22 20 19 19 17 15 14 12 11 10 8 7 6 5 6 6 6 7 6 5 6 6 5 5 5
4 3 4 2 10 9 7 9 15 13 20 19 19 13 7 29 30 32 38 36 39 32 28 24 21 19 19 18 17 15 13 12 11 9 7 6 6 7 6 7 6 6 7 7 8 7 6 5 5
5 1 4 2 12 14 7 8 9 10 13 16 15 14 8 13 28 29 33 43 39 32 31 27 22 18 17 16 16 14 13 12 11 10 9 7 8 7 7 6 6 7 8 7 7 7 6 4 4
5 4 6 4 10 6 8 14 14 11 7 21 21 7 13 16 29 28 33 39 35 30 31 30 26 23 21 19 17 16 14 12 12 11 11 10 8 8 8 8 8 8 7 8 8 6 4 4 4
2 4 5 3 9 5 8 10 10 8 10 12 5 17 23 30 29 22 25 32 33 30 29 28 27 25 22 19 18 17 16 15 14 13 12 12 11 10 10 11 10 8 7 8 8 6 4 3 6
3 3 6 6 6 9 9 12 9 8 16 19 19 21 28 28 27 19 14 28 31 32 31 29 25 24 23 20 20 20 18 17 16 14 14 13 11 12 12 13 13 11 9 7 7 5 5 5 5
2 3 5 8 7 9 13 12 7 9 12 20 22 19 17 21 18 18 16 20 30 34 33 33 27 26 28 26 23 20 19 18 17 16 12 11 13 14 18 17 16 16 12 10 11 9 6 5 3
9 11 12 4 3 2 9 11 10 16 13 19 20 18 13 15 10 18 18 24 17 28 31 36 31 28 29 28 26 22 22 21 20 19 15 14 14 18 15 19 21 15 14 11 11 13 7 2 4
8 17 8 10 1 2 14 10 4 16 18 19 19 16 13 10 13 23 21 27 22 17 30 32 32 27 29 27 25 23 25 23 24 22 19 18 18 16 16 22 22 18 14 13 13 15 13 5 10
7 11 5 2 10 7 8 6 4 13 18 16 16 11 11 11 13 20 23 27 28 26 19 23 31 28 21 22 22 20 16 9 26 25 19 19 17 12 10 11 10 14 13 14 16 15 11 10 11
3 3 6 4 3 3 4 4 3 3 14 15 13 10 10 11 16 16 20 19 28 29 25 23 28 22 18 15 14 14 16 7 15 22 18 18 18 15 12 12 8 10 10 13 12 16 14 15 14
6 4 2 5 3 0 7 6 7 6 1 12 13 11 9 9 14 21 18 21 20 23 25 23 21 19 18 16 16 15 16 15 7 13 14 19 20 18 18 18 17 14 16 18 20 18 19 18 18
5 2 5 5 5 8 3 6 9 5 4 7 9 9 9 8 10 22 19 25 23 23 26 25 22 23 20 20 20 18 19 18 17 13 16 18 22 22 19 20 20 21 20 19 17 21 20 23 14
3 4 8 7 12 12 7 5 6 8 8 10 11 10 9 9 8 22 23 21 25 24 28 25 23 24 23 20 21 19 20 20 18 21 18 20 25 27 24 20 22 20 20 21 21 20 15 8 4
7 11 18 15 13 13 15 9 10 11 9 13 12 10 10 10 10 25 23 23 29 26 29 27 27 22 29 27 26 23 24 21 21 21 21 23 23 30 28 25 23 23 27 25 21 19 17 15 9
15 5 5 5 9 4 17 6 15 15 11 15 17 14 13 10 9 15 24 25 30 30 31 29 27 27 29 30 29 26 26 26 25 25 25 24 26 24 28 28 27 25 24 26 28 28 24 22 15
4 3 1 6 5 14 10 13 9 10 7 13 18 18 15 16 14 15 17 29 31 33 35 35 34 33 32 31 27 24 22 24 26 29 31 30 29 29 28 28 28 28 28 29 28 29 30 22 22
3 6 4 10 7 3 3 3 4 5 5 7 7 17 16 16 16 17 18 23 30 35 40 39 39 39 39 37 34 32 28 25 29 26 23 22 25 28 32 31 30 30 30 32 31 31 28 29 24
6 6 12 10 3 5 4 5 8 6 6 8 9 13 12 16 17 21 21 30 33 33 39 44 44 43 41 39 39 35 31 32 27 26 27 26 27 28 28 32 36 35 36 35 35 36 34 27 30
8 7 10 5 4 2 10 6 4 4 7 7 8 9 10 12 18 16 33 35 33 33 35 39 44 47 45 41 41 39 35 32 28 28 24 12 13 27 28 31 35 37 39 39 38 38 38 38 34
2 5 2 2 3 5 11 2 8 8 7 6 13 9 13 13 13 11 21 16 23 21 30 33 42 40 44 44 39 38 34 28 24 21 21 22 22 20 19 24 33 37 39 40 34 34 35 35 37
6 5 4 3 1 2 12 5 4 6 6 5 2 6 9 8 9 3 21 20 8 1 25 21 37 35 36 40 40 35 33 30 27 24 22 19 18 17 17 14 18 24 30 32 33 32 35 35 36
7 3 6 3 8 5 4 2 5 6 5 5 3 8 6 11 10 9 7 27 29 30 48 34 34 36 37 39 39 33 27 25 25 21 18 19 20 19 18 20 20 17 17 22 28 32 35 35 35
4 5 7 5 2 4 2 5 6 5 7 6 2 8 8 8 11 11 9 18 29 45 48 21 32 37 37 32 28 24 22 21 20 19 20 21 20 19 19 21 22 23 22 21 24 28 31 32 34
5 6 5 2 5 5 5 6 6 6 7 6 8 8 8 8 6 8 9 21 32 32 21 19 30 29 28 27 23 21 20 19 19 21 21 19 17 16 18 21 24 26 25 23 23 25 28 30 31
3 4 4 5 8 1 4 3 6 1 7 11 11 9 9 8 7 4 4 6 9 11 15 22 26 26 23 20 21 21 21 20 20 21 20 19 19 21 23 22 23 25 25 25 22 23 24 23 25
Wind_Direction
175 158 305 15 49 94 274 87 87 76 57 47 84 76 74 47 125 137 135 142 149 149 150 150 150 154 154 147 144 141 142 139 138 134 127 123 129 124 117 114 114 115 121 119 113 110 112 117 121
258 218 205 148 283 185 25 81 91 94 124 102 96 91 70 73 87 121 116 140 144 148 148 147 147 152 154 152 150 152 151 152 148 148 142 139 149 150 139 133 123 119 123 124 124 127 126 123 123
265 250 148 165 240 268 95 87 94 130 150 114 64 50 75 117 123 140 141 138 142 143 150 146 146 152 153 153 156 154 157 158 156 156 151 153 154 153 146 144 142 137 136 136 143 142 142 137 135
241 149 304 205 152 111 118 125 128 107 91 95 106 66 107 129 111 140 141 139 134 142 152 149 148 151 155 159 159 158 163 166 161 165 164 170 164 168 161 171 166 165 165 162 153 154 150 144 142
5 308 320 254 83 89 120 142 137 102 88 97 99 109 87 108 125 137 141 143 137 152 150 151 152 151 153 156 159 166 172 171 174 172 174 176 174 181 194 198 195 186 178 169 168 175 164 156 168
53 10 333 145 114 73 47 95 100 102 107 108 107 108 99 127 138 142 145 141 154 153 153 154 155 157 156 154 159 165 168 171 175 179 180 185 190 204 206 193 192 186 169 173 172 176 179 171 178
97 49 238 20 108 92 70 67 113 111 129 134 126 116 137 132 147 146 141 149 154 156 155 157 156 157 159 162 164 169 173 180 185 187 191 196 207 201 187 177 175 165 169 182 183 175 173 182 195
136 185 292 184 98 83 80 74 91 93 102 129 135 147 152 154 155 159 138 143 149 155 160 159 163 165 168 172 175 179 183 186 190 194 195 204 206 203 196 186 160 166 180 179 183 185 191 210 242
53 281 311 303 105 136 125 105 100 143 85 50 122 138 143 152 149 165 143 143 144 153 162 167 168 171 172 176 180 182 189 192 195 195 200 205 207 202 198 195 176 183 193 195 194 193 196 228 235
103 161 235 82 137 149 158 128 126 130 109 94 104 120 143 150 152 170 157 152 155 160 166 169 169 171 174 179 186 191 195 197 194 193 195 200 196 214 215 211 207 212 207 208 197 182 213 250 252
22 229 281 52 48 12 137 118 118 126 124 129 132 139 149 147 159 159 176 167 167 167 168 174 175 175 183 187 196 192 197 196 193 186 189 204 209 226 227 226 216 216 220 214 208 205 204 245 250
316 264 257 66 101 27 99 126 114 95 122 131 134 141 149 157 164 170 182 170 181 166 173 172 176 182 188 189 202 199 198 201 195 193 198 201 220 219 212 224 221 217 215 210 216 227 154 5 176
280 275 311 149 128 42 75 45 324 105 109 121 130 141 152 167 171 175 184 171 180 175 177 173 181 182 190 195 195 203 205 209 209 198 200 206 210 218 231 230 232 215 216 219 221 216 211 215 197
210 258 7 168 85 62 87 54 48 91 114 116 129 149 168 170 180 175 181 174 177 171 184 165 179 192 182 193 197 197 186 242 208 201 208 211 196 214 268 204 201 207 229 231 218 202 221 265 224
138 74 324 55 141 108 98 28 319 50 127 136 141 158 181 169 176 168 183 171 176 175 174 179 168 161 168 179 181 191 210 225 189 198 210 205 203 209 229 233 227 239 235 250 229 217 242 237 221
350 61 18 253 168 145 93 255 269 143 167 146 155 167 174 178 164 169 169 164 160 166 172 168 178 188 200 195 206 210 216 214 232 218 208 207 207 215 228 231 233 238 246 255 235 240 247 251 232
303 52 248 307 190 165 132 259 251 252 164 170 152 158 169 178 168 171 172 169 165 177 174 174 181 188 194 206 214 218 215 220 241 230 232 222 217 216 224 228 231 238 246 261 265 244 245 254 243
352 263 257 243 191 179 141 230 251 215 204 185 155 164 176 179 178 172 173 179 177 179 176 181 182 192 196 200 205 215 217 222 236 235 234 234 233 227 226 229 227 231 246 257 262 264 266 247 215
231 211 233 236 169 157 189 183 205 212 208 183 160 169 174 182 183 175 181 188 177 176 176 180 183 190 195 194 198 205 215 222 229 232 233 239 250 232 229 230 230 231 238 247 252 261 262 258 246
253 307 351 98 168 153 175 118 209 205 176 171 166 176 181 182 174 172 184 188 179 179 183 186 189 194 198 202 206 207 215 226 232 234 234 235 243 237 231 232 235 238 238 247 252 254 259 264 259
241 228 282 206 59 64 99 179 168 201 176 181 173 179 177 184 176 176 184 187 182 186 190 192 196 200 203 204 206 208 219 226 233 239 240 242 237 234 234 237 240 242 242 246 252 253 254 251 249
47 239 350 148 71 145 72 138 279 201 119 156 196 183 182 187 182 179 186 190 191 192 196 200 203 204 208 209 207 210 217 224 235 243 247 245 239 236 235 236 238 241 243 242 250 253 255 255 245
230 248 124 105 92 82 28 89 259 147 190 197 219 178 187 186 185 182 189 195 199 194 194 201 207 209 211 211 210 210 218 227 234 239 243 245 247 242 237 240 239 239 242 245 244 247 251 254 250
268 279 81 57 127 80 188 157 264 217 196 205 196 200 187 189 193 187 191 193 197 202 196 197 204 209 211 214 213 215 218 225 231 243 252 239 251 244 245 246 245 244 244 246 249 250 252 254 251
151 320 126 255 336 227 153 137 231 205 195 208 188 212 180 197 193 200 190 181 190 210 208 197 204 209 210 208 213 217 222 223 223 231 246 256 257 251 251 255 251 247 248 251 257 256 258 260 258
286 189 177 246 277 272 135 157 249 187 193 244 265 269 222 214 206 114 102 89 275 180 295 265 200 206 207 205 211 217 221 226 233 239 245 250 253 259 262 261 269 266 262 257 259 260 259 262 262
289 352 249 271 119 70 224 339 20 172 191 244 217 23 10 54 105 101 84 161 183 183 219 235 214 198 202 207 209 209 216 222 227 232 238 248 253 257 263 269 272 272 271 268 260 256 260 260 261
225 261 351 347 46 83 34 168 203 187 212 151 149 66 67 65 94 125 136 156 184 200 225 237 204 189 194 196 204 205 213 225 230 229 231 240 249 252 260 269 274 276 274 270 264 263 262 259 258
354 346 1 102 93 120 177 276 228 156 167 112 88 85 75 56 67 127 172 177 196 225 218 198 180 179 184 191 194 200 207 217 227 234 240 246 253 259 265 268 269 275 277 275 272 270 269 266 257
271 53 62 96 318 310 112 274 78 212 53 67 65 56 39 27 30 12 58 109 129 173 207 167 168 177 181 188 196 205 205 208 218 230 240 251 256 256 252 261 271 275 275 276 269 273 272 265 257
Height
761 760 751 751 786 791 784 764 742 753 753 738 738 749 763 759 770 800 785 789 795 800 806 810 814 816 821 821 824 825 827 829 831 833 835 837 839 841 842 844 845 846 848 849 851 853 853 853 854
756 760 765 769 798 800 791 751 759 751 742 738 741 750 763 779 766 776 785 791 796 800 806 811 815 818 821 821 824 826 828 830 831 833 835 837 840 841 842 844 845 847 848 848 850 852 852 852 852
753 757 766 780 778 789 783 754 751 742 735 737 749 745 760 777 773 780 787 792 797 802 807 811 815 817 820 822 824 826 829 830 832 834 835 837 840 840 842 843 845 847 848 848 849 850 851 851 850
754 759 758 780 773 757 755 750 742 744 739 742 746 769 762 766 771 778 787 793 798 804 808 811 815 817 820 822 824 827 829 830 832 834 835 837 839 839 840 842 844 845 847 847 847 849 850 849 849
746 750 779 776 764 746 737 733 736 747 752 755 753 776 773 768 773 780 786 791 798 804 809 813 815 817 819 821 824 827 829 830 832 833 835 836 837 838 838 840 842 843 845 846 846 847 849 849 847
764 769 787 785 763 748 737 730 736 744 751 759 764 772 779 774 776 782 785 790 795 801 808 812 815 817 820 821 824 826 828 830 831 832 833 834 835 836 836 837 839 841 843 844 845 846 847 849 848
774 782 785 764 759 757 743 727 739 745 751 758 755 780 779 777 779 781 785 789 794 799 803 809 814 818 820 822 824 826 827 829 830 831 832 833 833 834 835 836 838 839 840 842 843 845 846 847 848
767 778 778 756 765 765 735 733 733 742 750 743 747 777 784 774 778 781 786 789 793 798 803 805 809 813 816 819 821 823 825 827 828 830 831 832 832 833 834 835 836 837 838 840 842 845 847 848 848
751 780 785 762 760 753 732 741 732 731 742 741 742 754 763 771 777 780 786 792 795 799 801 804 807 810 814 817 819 821 823 824 826 827 829 830 831 831 832 833 835 835 836 838 841 844 845 846 846
769 786 771 733 734 741 730 736 738 742 748 756 757 761 767 772 776 779 782 790 793 796 800 802 805 808 812 814 817 819 821 823 824 826 827 828 828 829 830 832 834 834 834 837 840 842 842 842 842
764 775 739 733 726 726 729 735 730 744 759 755 764 764 768 773 777 780 782 784 789 792 797 799 803 806 809 811 814 817 819 820 822 824 825 827 827 828 829 831 833 833 833 834 838 838 840 838 840
779 744 743 731 726 728 732 731 739 740 748 745 754 760 767 772 776 778 780 783 786 791 794 796 800 803 807 810 811 813 815 817 820 821 823 825 826 827 828 828 831 832 831 832 833 835 837 836 835
780 756 732 728 725 727 729 743 744 744 740 744 753 760 766 770 773 775 777 781 784 787 793 795 798 802 805 806 809 811 812 813 816 819 821 823 824 825 826 826 827 829 830 830 832 834 835 835 836
755 747 742 729 734 734 740 745 741 747 741 748 754 762 764 767 769 772 774 777 780 784 789 792 797 801 805 806 809 811 812 813 813 816 819 820 821 822 823 824 824 826 828 827 830 832 832 830 835
738 755 747 742 737 744 738 760 760 747 745 752 756 761 762 764 765 769 771 774 778 782 786 791 794 797 801 803 806 807 809 810 811 813 815 818 819 820 822 822 822 823 825 826 827 829 828 829 833
755 762 783 745 742 746 751 785 756 746 751 754 755 758 759 761 763 766 770 773 777 781 785 788 791 794 797 799 802 805 806 808 809 811 811 813 816 818 819 820 820 821 821 823 824 824 824 824 826
774 788 783 768 742 748 755 779 754 746 750 754 754 757 759 760 761 764 768 771 775 779 782 786 789 791 794 797 800 802 804 805 806 807 808 809 811 812 814 816 817 818 818 818 819 820 822 821 823
800 784 773 771 743 748 764 766 750 745 749 754 752 755 758 759 760 761 765 769 772 775 779 783 786 789 791 794 798 800 802 803 803 803 804 806 807 808 809 811 813 815 814 814 813 814 816 817 817
757 761 779 748 725 745 755 758 751 742 748 748 751 753 755 756 754 758 762 766 769 772 776 779 782 785 788 791 794 796 797 798 799 800 800 801 802 803 804 805 808 810 810 810 810 809 809 809 811
748 751 752 731 720 726 753 774 747 738 736 737 743 748 748 750 752 755 759 763 766 769 772 776 778 781 782 784 787 790 793 794 795 795 795 797 798 798 800 801 803 805 806 807 807 807 807 806 807
739 748 750 751 726 732 748 775 754 736 727 728 730 733 738 742 747 750 752 755 759 763 766 769 771 775 777 778 782 785 788 791 791 791 791 791 792 793 794 795 796 798 801 802 803 803 804 804 806
755 724 730 732 757 785 749 807 762 746 741 735 728 732 733 735 736 740 745 748 750 754 759 762 764 766 768 772 775 777 779 780 782 784 785 786 786 787 788 789 790 791 793 795 796 798 799 799 799
738 714 729 736 763 775 786 810 779 745 756 746 733 729 727 725 725 731 736 739 742 744 748 752 757 761 763 765 767 768 770 772 775 778 779 780 780 780 782 782 782 784 785 786 787 789 791 791 792
705 721 738 752 771 808 787 795 785 767 751 741 730 722 719 719 717 718 722 729 736 741 741 744 748 749 754 757 760 762 763 766 770 773 774 774 774 775 775 775 775 776 776 777 779 782 783 783 784
716 743 792 809 810 808 762 788 774 741 728 723 725 721 714 711 712 713 713 722 735 742 741 738 740 743 744 748 753 757 759 763 765 767 769 769 770 770 770 770 769 769 769 769 772 773 774 776 776
732 742 785 802 800 798 758 789 761 724 715 712 709 711 710 710 706 712 721 734 736 732 743 745 730 737 741 743 744 749 752 755 757 760 762 763 764 764 765 766 765 764 765 765 764 764 764 766 767
733 756 723 758 758 806 777 755 734 722 724 721 714 713 712 716 720 717 720 715 721 727 716 720 728 727 734 738 742 744 749 751 752 755 756 757 758 759 760 760 760 759 758 758 757 756 754 756 757
715 711 763 766 793 811 791 776 780 747 741 723 716 722 719 715 718 723 722 721 723 719 714 720 724 723 730 738 744 743 747 752 755 756 755 754 753 753 754 754 754 753 751 751 751 750 748 748 747
739 751 742 750 769 807 811 801 733 737 729 724 724 720 718 715 715 717 718 718 717 713 719 719 722 727 731 734 736 737 741 745 751 754 755 754 752 749 747 747 747 747 745 743 743 742 742 741 741
712 729 741 787 785 774 787 790 724 715 720 727 728 723 719 715 712 710 710 713 711 712 723 726 725 728 734 737 738 737 732 734 741 747 750 751 749 747 743 741 740 740 739 738 735 734 733 734 735